Flag for Australia Weather past 2 weeks in The Settlement, Christmas Island, Australia

Now
75 °F

Low clouds.


Feels Like: 74 °F
Forecast: 74 / 78 °F
Wind: 13 mph from Southeast

Location: Christmas Island Aerodrome

Current Time: Jul 31, 2014 at 4:43:18 PM

Latest Report: Jul 31, 2014 at 4:00 PM


Visibility: N/A

Pressure: 29.92 "Hg

Humidity: 94%

Dew point: 73 °F

Location of The SettlementLocation

Historic Weather in The Settlement — Graph

°F

The Settlement temperature yesterday

Maximum temperature yesterday: 77 °F (at 10:00 AM)
Minimum temperature yesterday: 73 °F (at 12:58 AM)
Average temperature yesterday: 75 °F

Past Weeks' High & Low Weather Summary

 TemperatureHumidityPressure
High79 °F (Jul 16, 4:00 PM)100% (Jul 18, 7:00 AM)30.07 "Hg (Jul 18, 7:00 AM)
Low72 °F (Jul 23, 7:00 PM)65% (Jul 16, 4:00 PM)29.89 "Hg (Jul 16, 3:00 PM)
Average75 °F83%29.96 "Hg
* Reported Jul 16 3:00 PM — Jul 31 3:00 PM, The Settlement, Weather by CustomWeather, © 2014

Note: Actual official high and low records may vary slightly from our data, if they occured in-between our weather recording intervals... More about our weather records

Advertising

The Settlement weather history for previous 24 hours

 ConditionsComfort  
Time TempWeatherWind HumidityBarometerVisibility
3:00 PM
Jul 31
75 °FLow clouds.13 mph89%29.92 "HgN/A
2:00 PM77 °FMostly cloudy.13 mph89%29.92 "HgN/A
1:00 PM77 °FLow clouds.13 mph89%29.95 "HgN/A
12:00 PM77 °FLow clouds.13 mph89%29.98 "HgN/A
11:00 AM79 °FLow clouds.12 mph84%29.98 "HgN/A
10:00 AM77 °FLow clouds.12 mph89%30.01 "HgN/A
9:00 AM77 °FLow clouds.12 mph89%30.01 "HgN/A
8:00 AM75 °FMostly cloudy.10 mph94%30.01 "HgN/A
7:00 AM75 °FLow clouds.12 mph89%29.98 "HgN/A
6:00 AM75 °FMostly cloudy.12 mph89%29.98 "HgN/A
5:00 AM75 °FSprinkles. Mostly cloudy.9 mph89%29.95 "HgN/A
4:00 AM73 °FMostly cloudy.10 mph94%29.95 "HgN/A
3:00 AM73 °FMostly cloudy.8 mph94%29.95 "HgN/A
2:00 AM73 °FMostly cloudy.8 mph94%29.98 "HgN/A
1:00 AM73 °FMostly cloudy.8 mph94%29.98 "HgN/A
12:00 AM75 °FLow clouds.10 mph89%29.98 "HgN/A
11:00 PM
Jul 30
75 °FPartly cloudy.9 mph89%29.98 "HgN/A
10:00 PM73 °FPassing clouds.8 mph94%29.98 "HgN/A
9:00 PM73 °FMostly cloudy.8 mph94%29.98 "HgN/A
8:00 PM75 °FPassing clouds.12 mph83%29.95 "HgN/A
7:00 PM73 °FPassing clouds.10 mph89%29.92 "HgN/A
6:00 PM73 °FPassing clouds.13 mph83%29.92 "HgN/A
5:00 PM75 °FPartly sunny.13 mph83%29.89 "HgN/A
4:00 PM75 °FPartly sunny.14 mph83%29.89 "HgN/A
Weather by CustomWeather, © 2014

See weather overviewHow to use our weather pages